Regional Weather Roundup
Issued by NWS

Home | Current Version | Previous Version | Text Only | Print | Product List | Glossary Off
Versions: 1 2 3 4 5 6 7 8 9 10 11 12 13 14 15 16 17 18 19 20 21 22 23 24 25 26 27 28 29 30 31 32 33 34 35 36 37 38 39 40 41 42 43 44 45 46 47 48 49 50

972
ASUS43 KTOP 281059
RWRKS

WEATHER ROUNDUP FOR KANSAS
NATIONAL WEATHER SERVICE GOODLAND KS
600 AM CDT THU JUL 28 2016

NOTE:  "FAIR" INDICATES FEW OR NO CLOUDS BELOW 12,000 FEET WITH NO
SIGNIFICANT WEATHER AND/OR OBSTRUCTIONS TO VISIBILITY.

KSZ001>006-013>018-027>032-041>047-281200-
NORTHWEST KANSAS

CITY           SKY/WX    TMP DP  RH WIND       PRES   REMARKS
GOODLAND       CLOUDY    68  53  58 E28G45    30.10F THUNDER
HAYS           MOCLDY    68  59  73 NW3       30.06S
HILL CITY      PTCLDY    68  67  96 W5        30.08R
RUSSELL        CLOUDY    70  66  87 N8        30.04R
$$

KSZ061>065-074>080-084>089-281200-
SOUTHWEST KANSAS

CITY           SKY/WX    TMP DP  RH WIND       PRES   REMARKS
DODGE CITY     CLOUDY    66  63  90 E9        30.09R
ELKHART          N/A     64  59  84 S5          N/A
GARDEN CITY    CLOUDY    64  60  87 N10       30.08S
GREAT BEND     CLOUDY    70  59  68 N3        30.03R
LIBERAL        CLEAR     72  55  56 E3        30.08S
$$

KSZ066>073-081>083-090>101-281200-
SOUTHEAST KANSAS

CITY           SKY/WX    TMP DP  RH WIND       PRES   REMARKS
CHANUTE        CLEAR     75  73  93 W3        29.95R
COFFEYVILLE    CLEAR     73  73 100 S5        29.95R
HUTCHINSON     CLOUDY    73  70  90 NW5       30.01R
NEWTON         PTCLDY    74  72  93 NW6       30.01R
PARSONS        CLEAR     73  72  96 S3        29.96R
WICHITA INTL   MOCLDY    73  70  90 W5        29.99R
WICHITA JABRA  CLEAR     75  71  87 W6        29.99R
WINFIELD       CLEAR     71  69  93 N3        29.99R
$$

KSZ007>012-019>026-033>040-048>060-102>105-281200-
NORTHEAST KANSAS

CITY           SKY/WX    TMP DP  RH WIND       PRES   REMARKS
CONCORDIA      CLOUDY    69  64  84 CALM      30.02R
EMPORIA        CLOUDY    73  71  93 CALM      29.97R
LAWRENCE       CLEAR     68  67  96 CALM      29.95R FOG
MANHATTAN      CLOUDY    72  69  90 CALM      29.99R
OLATHE IND     CLEAR     74  71  91 W5        29.96R
OLATHE EXE     MOCLDY    73  70  90 SW3       29.95R
SALINA         MOCLDY    75  70  84 NW6       30.01R
TOPEKA BILLARD CLEAR     71  68  90 CALM      29.96R
TOPEKA FORBES  CLEAR     72  69  90 NW6       29.96R
$$




USA.gov is the U.S. government's official web portal to all federal, state and local government web resources and services.